User: anonymous   Login
Location: ?????????
(38.0736°N, 23.2119°E)
Time: 17:51:57
(UTC+00:00)
Language:

Iridium 4 Rocket - Orbit

View from above orbital plane
View from above orbital plane
View from above satellite
View from above satellite

Ground track
Ground track

The orbit data is extracted from the following two-line orbital elements,

1 24797U 97020F   24171.94698750  .00001414  00000-0  28658-3 0  9992
2 24797  86.8960 135.3628 0221893  57.1595   4.7485 14.45998170427417
Epoch (UTC): 19 June 2024 22:43:39
Eccentricity: 0.0221893
inclination: 86.8960°
perigee height: 581 km
apogee height: 896 km
right ascension of ascending node: 135.3628°
argument of perigee: 57.1595°
revolutions per day: 14.45998170
mean anomaly at epoch: 4.7485°
orbit number at epoch: 42741

The dashed part of the orbit path shows where the satellite is in the earth's shadow,  

DLR